This is the latest recevied weather packets stored in our database for station/object WA4IKQ. If no packets are shown the sender has not sent any weather packets the latest 10 day(s).
| Time | Temp. | Humidity | Pressure | Rain* | Wind** | Luminosity | Snow |
|---|---|---|---|---|---|---|---|
| 1778189180 | 35.56° C | 27% | 1012.2 hPa | 0 mm | 1.34 m/s, 201° | - | - |
| 1778188990 | 35.56° C | 26% | 1012.2 hPa | 0 mm | 1.79 m/s, 245° | - | - |
| 1778188947 | 35.56° C | 26% | 1012.2 hPa | 0 mm | 1.79 m/s, 245° | - | - |
| 1778188909 | 35.56° C | 26% | 1012.2 hPa | 0 mm | 1.79 m/s, 245° | - | - |
| 1778188877 | 35.56° C | 26% | 1012.2 hPa | 0 mm | 1.79 m/s, 245° | - | - |
| 1778188651 | 35.56° C | 27% | 1012.3 hPa | 0 mm | 2.68 m/s, 219° | - | - |
| 1778188578 | 35.56° C | 27% | 1012.3 hPa | 0 mm | 2.68 m/s, 219° | - | - |
| 1778188410 | 35.56° C | 26% | 1012.4 hPa | 0 mm | 0.89 m/s, 218° | - | - |
| 1778188278 | 35.56° C | 26% | 1012.4 hPa | 0 mm | 0.89 m/s, 218° | - | - |
| 1778188016 | 35.56° C | 26% | 1012.4 hPa | 0 mm | 1.79 m/s, 226° | - | - |
| 1778187980 | 35.56° C | 26% | 1012.4 hPa | 0 mm | 1.79 m/s, 226° | - | - |
| 1778187783 | 35.56° C | 26% | 1012.6 hPa | 0 mm | 1.79 m/s, 274° | - | - |
| 1778187741 | 35.56° C | 26% | 1012.6 hPa | 0 mm | 1.79 m/s, 274° | - | - |
| 1778187679 | 35.56° C | 26% | 1012.6 hPa | 0 mm | 1.79 m/s, 274° | - | - |
| 1778187478 | 35.56° C | 26% | 1012.6 hPa | 0 mm | 3.13 m/s, 186° | - | - |
| 1778187379 | 35.56° C | 26% | 1012.6 hPa | 0 mm | 3.13 m/s, 186° | - | - |
| 1778187187 | 35.56° C | 26% | 1012.5 hPa | 0 mm | 1.79 m/s, 240° | - | - |
| 1778187079 | 35.56° C | 26% | 1012.5 hPa | 0 mm | 1.79 m/s, 240° | - | - |
| 1778186824 | 35.56° C | 26% | 1012.5 hPa | 0 mm | 4.02 m/s, 281° | - | - |
| 1778186777 | 35.56° C | 26% | 1012.5 hPa | 0 mm | 4.02 m/s, 281° | - | - |
| 1778186513 | 35.56° C | 26% | 1012.6 hPa | 0 mm | 3.13 m/s, 290° | - | - |
| 1778186477 | 35.56° C | 26% | 1012.6 hPa | 0 mm | 3.13 m/s, 290° | - | - |
| 1778186278 | 36.11° C | 27% | 1012.5 hPa | 0 mm | 1.79 m/s, 276° | - | - |
| 1778186177 | 36.11° C | 27% | 1012.5 hPa | 0 mm | 1.79 m/s, 276° | - | - |
| 1778185914 | 36.11° C | 27% | 1012.6 hPa | 0 mm | 2.24 m/s, 229° | - | - |
* Rain latest hour (hover to see other rain measurements)
** Current wind speed in m/s (hover to see current wind gust speed)